WA1PB Weather Reports


time (UTC)temp
C
wind
direction
speed
KPH
gust
KPH
rain 1hr
cm
rain 24hr
cm
rain mn
cm
humidity
%
barometer
mb
20260507115026 7 158 0.0 3.2 0.00 1.45 0.00 98
20260507114027 6 0.0 0.0 0.00 1.45 0.00 98
20260507113026 6 293 1.6 3.2 0.00 1.45 0.00 99
20260507100526 5 0.0 0.0 0.00 1.45 0.00 99
20260507095606 5 0.0 0.0 0.00 1.45 0.00 99
20260507094526 5 0.0 0.0 0.00 1.45 0.00 99
20260507093622 5 0.0 0.0 0.00 1.45 0.00 99
20260507092526 5 0.0 0.0 0.00 1.45 0.00 99
20260507091703 5 0.0 0.0 0.00 1.45 0.00 99
20260507090546 5 0.0 0.0 0.00 1.45 0.00 99
20260507085949 5 0.0 0.0 0.00 1.45 0.00 99
20260507084546 5 0.0 0.0 0.00 1.45 0.00 99
20260507083526 5 0.0 0.0 0.00 1.45 0.00 99
20260507082606 5 0.0 0.0 0.00 1.45 0.00 99
20260507081526 5 0.0 0.0 0.00 1.45 0.00 99
20260507080526 5 0.0 0.0 0.00 1.45 0.00 99
20260507075526 6 0.0 0.0 0.00 1.45 0.00 99
20260507074526 6 0.0 0.0 0.00 1.45 0.00 99
20260507073547 6 0.0 0.0 0.00 1.45 0.00 99
20260507072526 6 0.0 0.0 0.00 1.45 0.00 99
20260507071526 6 0.0 0.0 0.00 1.45 0.00 99
20260507070526 6 0.0 0.0 0.00 1.45 0.00 99
20260507065545 6 0.0 0.0 0.00 1.45 0.00 99
20260507064622 6 0.0 0.0 0.00 1.45 0.00 99
20260507063641 -17 0.0 0.0 0.00 1.45 0.00
20260507062545 6 0.0 0.0 0.00 1.45 0.00 99
20260507061526 6 0.0 0.0 0.00 1.45 0.00 99
20260507060546 6 0.0 0.0 0.00 1.45 0.00 99
20260507055526 6 0.0 0.0 0.00 1.47 0.00 99
20260507054526 6 0.0 0.0 0.00 1.47 0.00 99
20260507053622 6 0.0 0.0 0.00 1.52 0.00 99
20260507052527 6 0.0 0.0 0.00 1.55 0.00 99
20260507051526 6 0.0 0.0 0.00 1.63 0.00 99
20260507050622 6 0.0 0.0 0.00 1.73 0.00 99
20260507044526 -17 0.0 0.0 0.00 1.75 0.00
20260507043526 6 0.0 0.0 0.00 1.78 0.00 99
20260507043104 6 0.0 0.0 0.00 1.80 0.00 99
20260507023816 7 0.0 0.0 0.08 1.83 1.83 99
20260507010623 -17 0.0 0.0 0.05 1.75 1.75
20260507003045 -17 0.0 0.0 0.08 1.75 1.75
20260506234526 7 0.0 0.0 0.05 1.70 1.70 97
20260506233526 7 23 1.6 3.2 0.05 1.70 1.70 97
20260506232526 7 0.0 0.0 0.03 1.68 1.68 97
20260506231526 7 23 3.2 3.2 0.03 1.68 1.68 96
20260506230526 7 23 3.2 3.2 0.00 1.65 1.65 96
20260506225526 8 17 3.2 3.2 0.00 1.65 1.65 96
20260506224545 8 25 1.6 3.2 0.00 1.65 1.65 96
20260506223526 8 36 1.6 3.2 0.00 1.65 1.65 96
20260506222526 8 18 3.2 4.8 0.00 1.65 1.65 96
20260506221547 8 21 1.6 4.8 0.00 1.65 1.65 97
20260506220546 8 0 1.6 3.2 0.00 1.65 1.65 97
20260506215526 8 346 1.6 3.2 0.03 1.65 1.65 96
20260506214526 8 327 1.6 3.2 0.03 1.65 1.65 96
20260506213546 -17 0.0 0.0 0.03 1.65 1.65
20260506212948 8 270 3.2 3.2 0.03 1.65 1.65 96
20260506210623 8 1.6 3.2 0.13 1.65 1.65 97
20260506205237 8 0.0 0.0 0.10 1.65 1.63 97
20260506194641 -17 0 4.8 4.8 0.08 1.60 1.50
20260506192352 10 3.2 3.2 0.03 1.55 1.45 94
20260506190525 10 17 3.2 4.8 0.05 1.55 1.45 94
20260506185525 10 12 4.8 6.4 0.15 1.55 1.45 94
20260506184526 10 3 3.2 6.4 0.13 1.52 1.42 95
20260506183525 11 324 4.8 8.0 0.38 1.52 1.42 95
20260506182526 11 4.8 4.8 0.38 1.52 1.42 96
20260506181603 11 338 4.8 6.4 0.38 1.52 1.42 95
20260506180218 11 4.8 4.8 0.25 1.40 1.30 96
20260506162525 13 0.0 0.0 0.18 1.09 0.99 96
20260506161546 13 0.0 0.0 0.15 1.04 0.94 96
20260506160603 13 0.0 0.0 0.13 0.99 0.89 96
20260506155141 13 0.0 0.0 0.18 0.99 0.89 95
20260506154026 12 0.0 0.0 0.18 0.97 0.86 95
20260506153140 12 0.0 0.0 0.15 0.91 0.81 95
20260506152122 12 0.0 3.2 0.15 0.91 0.81 95
20260506151104 12 0.0 0.0 0.15 0.86 0.76 95
20260506150025 12 0.0 0.0 0.15 0.84 0.74 94
20260506145026 12 0.0 0.0 0.15 0.81 0.71 94
20260506144025 12 0.0 0.0 0.15 0.79 0.69 95
20260506143025 12 0.0 0.0 0.13 0.76 0.66 95
20260506142026 12 0.0 0.0 0.15 0.76 0.66 95
20260506141025 12 0.0 0.0 0.10 0.74 0.61 95
20260506140046 12 0.0 0.0 0.13 0.71 0.58 97
20260506135025 12 0.0 0.0 0.13 0.69 0.56 97
20260506134025 12 0.0 0.0 0.13 0.66 0.53 97
20260506133046 12 0.0 0.0 0.13 0.66 0.53 97
20260506132025 12 0.0 0.0 0.10 0.64 0.51 98
20260506131026 12 0.0 0.0 0.10 0.64 0.51 99
20260506130025 12 0.0 0.0 0.05 0.58 0.46 99
20260506125026 12 0.0 1.6 0.05 0.56 0.43 99
20260506124025 12 0.0 0.0 0.03 0.53 0.41 99
20260506123025 12 0.0 0.0 0.03 0.53 0.41 99
20260506122026 12 158 0.0 3.2 0.03 0.53 0.41 99
20260506121025 11 158 1.6 4.8 0.03 0.53 0.41 99
20260506120025 11 0.0 0.0 0.03 0.53 0.41 99